GEFSCGP_850_meantemp_042.txt.gz
Temperature
27 28 28 29 29 28 28 28 27 27 26 26 25 25 23 21 21 20 19 19 19 19 18 18 18 18 18 17 17 17 17 17 17 16 16 16 15 15 14 14 13 13 12 12
28 29 29 29 28 28 28 27 27 26 25 25 25 24 23 22 21 20 20 19 19 19 19 18 18 18 18 18 17 17 17 17 17 16 16 16 15 14 14 13 12 12 12 12
28 29 29 28 28 28 28 28 27 26 25 25 25 24 23 22 21 20 20 20 20 20 20 19 19 18 18 18 18 17 17 17 17 16 15 15 15 14 14 13 13 12 11 11
29 29 28 28 28 28 28 28 27 26 26 26 25 24 23 23 22 22 21 21 21 21 20 20 20 19 19 18 18 17 17 17 17 16 15 15 15 14 14 13 12 12 11 11
29 29 28 28 28 28 27 27 27 26 26 26 25 26 25 24 23 23 22 22 22 21 21 20 20 20 19 19 18 18 17 17 17 16 16 15 14 14 14 13 12 11 11 11
29 29 29 28 28 27 26 26 26 27 27 26 25 25 25 25 25 24 24 23 22 22 21 21 20 20 19 19 18 18 17 17 17 16 15 15 14 13 13 12 12 12 12 11
29 29 29 28 28 27 27 27 27 27 27 26 25 26 26 26 26 26 25 24 23 22 22 21 21 20 19 19 18 18 17 17 16 16 15 14 14 13 12 12 12 11 12 12
28 28 29 29 29 28 28 28 26 26 26 27 26 26 27 26 25 25 25 24 23 23 23 22 21 21 20 19 18 18 17 17 16 16 15 14 14 13 13 12 12 12 11 11
28 28 29 28 29 28 28 28 28 27 27 26 26 26 27 26 26 25 25 24 24 23 23 22 22 21 20 19 18 18 17 16 16 15 14 14 13 13 12 12 11 11 11 11
29 28 29 28 28 27 28 28 27 27 25 26 26 26 27 27 27 26 26 25 25 24 23 22 22 21 20 19 18 17 17 16 15 15 14 14 13 12 12 12 11 11 11 10
29 28 28 29 28 28 27 27 27 27 27 26 26 27 28 28 27 27 27 26 25 24 23 22 21 20 19 19 18 17 17 16 15 14 14 13 13 12 12 11 11 11 10 10
28 28 28 28 28 28 28 28 27 26 26 26 26 27 28 28 28 27 27 26 25 24 23 22 21 20 19 19 18 17 16 16 15 14 14 13 13 12 11 11 11 10 10 10
27 27 27 27 27 27 28 28 27 27 26 26 26 27 28 27 27 26 26 25 24 23 22 21 20 20 19 19 18 17 17 16 15 14 14 13 12 12 11 11 11 10 10 10
27 27 27 27 27 28 28 28 27 27 27 27 27 27 28 28 27 27 26 25 24 22 22 21 20 20 19 18 18 17 17 16 15 14 14 13 12 12 11 11 10 10 10 10
27 27 28 28 28 28 28 28 28 27 27 27 27 27 28 28 28 27 26 24 23 22 21 21 20 20 19 18 18 17 17 16 15 14 14 13 12 12 11 11 10 10 10 9
26 26 27 27 28 28 27 27 27 27 27 27 27 27 29 28 26 26 25 24 23 22 22 21 21 20 19 19 18 17 17 16 15 14 14 13 12 12 11 10 10 10 9 9
27 26 26 26 28 27 26 27 27 27 28 27 27 28 28 27 27 26 25 24 24 23 22 22 21 20 20 19 18 17 17 16 15 14 14 13 12 12 11 10 10 10 9 9
26 25 26 26 26 25 27 29 28 27 28 28 27 28 28 27 26 25 24 24 24 23 23 22 21 21 20 19 18 18 17 16 15 14 14 13 12 12 11 10 10 10 9 9
25 25 26 26 26 26 28 28 28 27 27 28 28 28 27 26 25 26 25 24 24 23 23 22 22 21 20 19 18 17 16 16 15 14 14 13 12 12 11 11 10 10 9 9
24 24 25 25 25 24 27 27 27 27 26 28 27 27 27 26 26 27 26 25 24 23 23 22 21 21 20 19 18 18 16 16 15 14 13 13 12 12 12 11 11 10 9 9
25 24 25 25 25 26 27 26 26 26 25 26 26 26 26 26 26 26 25 25 24 23 22 22 21 20 20 19 19 18 17 16 15 14 14 13 13 12 12 11 11 10 9 9
26 26 25 25 25 25 26 26 26 24 24 24 24 24 24 24 24 24 24 23 23 22 22 21 20 20 19 19 19 18 17 16 15 15 14 13 13 12 11 11 11 10 9 8
26 26 26 26 26 25 24 23 22 22 22 22 22 23 23 23 23 23 23 22 22 21 21 20 20 19 19 19 18 18 17 16 15 15 14 13 13 12 12 11 10 9 8 8
26 24 25 25 26 24 22 20 19 19 19 20 20 21 21 22 22 21 21 20 20 20 19 19 19 18 18 18 17 17 16 16 15 15 14 13 13 12 11 10 9 9 9 8
24 24 24 24 24 23 20 18 18 17 18 18 18 19 19 19 19 19 19 18 18 18 18 18 17 17 16 16 17 16 16 15 15 14 14 13 12 12 11 10 10 9 9 8
22 22 23 23 20 20 18 17 17 17 17 17 17 17 17 17 17 17 17 17 17 17 16 16 16 16 16 16 16 16 15 15 15 14 13 12 12 11 11 10 10 10 9 9

GEFSCGP_850_meantemp_048.txt.gz
Temperature
30 30 29 30 31 31 30 27 25 25 27 27 26 23 22 22 22 21 21 21 20 20 20 19 19 19 18 18 18 18 18 18 18 17 17 17 17 17 16 16 15 15 14 14
30 30 31 32 32 31 29 26 25 26 27 27 25 23 24 23 22 22 22 21 21 20 20 19 19 19 19 18 18 18 18 18 18 17 17 17 17 16 16 16 15 14 14 13
31 31 32 32 31 29 27 26 27 27 28 27 24 22 23 24 24 22 22 21 21 21 20 20 20 20 19 19 19 19 18 18 18 17 17 17 16 16 16 16 15 15 14 13
31 32 32 31 30 30 28 29 29 29 27 25 24 22 23 24 24 24 22 22 22 22 21 21 21 20 20 20 19 19 19 18 18 17 17 16 16 16 16 16 15 15 14 13
31 32 31 31 31 31 30 30 28 26 24 23 22 23 24 24 24 24 24 23 23 23 22 22 21 21 21 21 20 19 19 18 18 17 17 16 16 16 16 15 15 14 14 14
31 32 32 32 32 31 31 29 26 23 21 20 22 24 24 25 25 25 25 24 24 23 23 22 22 22 22 21 21 20 19 18 18 17 17 16 16 15 15 15 14 14 14 14
29 29 31 32 31 29 28 28 25 21 19 20 24 25 25 27 27 27 26 25 25 24 24 23 23 22 22 22 21 20 19 19 18 17 16 16 15 15 15 15 14 14 14 14
28 26 29 31 31 30 29 29 27 26 25 24 26 26 27 29 28 28 27 26 25 25 24 24 23 23 22 22 21 21 20 19 18 17 17 16 16 15 15 15 14 14 14 13
29 28 31 32 32 31 30 30 30 29 28 26 26 27 28 29 28 28 27 27 26 26 25 24 24 23 23 22 22 21 20 19 18 17 17 16 16 15 15 14 14 13 13 13
31 30 31 32 32 32 31 30 30 28 27 26 24 25 25 27 28 28 28 27 27 26 26 25 25 24 23 22 21 20 20 19 18 17 17 16 16 15 14 14 13 13 13 13
31 29 30 30 28 29 29 30 29 29 28 27 24 23 26 27 28 28 28 28 27 27 26 26 25 24 23 22 21 20 19 19 18 17 17 16 16 15 14 14 13 13 12 12
31 30 29 28 29 29 30 30 29 28 27 27 27 26 29 29 30 29 29 28 28 27 27 26 25 24 23 22 21 20 19 18 18 17 17 16 16 15 14 14 13 13 13 12
30 28 27 26 25 26 27 29 29 29 28 27 27 26 29 29 30 29 29 28 28 27 27 26 25 24 23 22 21 20 19 19 18 17 17 16 16 15 15 14 14 13 13 12
30 28 27 26 25 26 27 28 29 29 28 27 27 27 28 29 29 29 29 28 28 27 26 26 25 23 23 22 21 20 20 19 18 18 17 16 16 16 15 14 14 13 13 12
30 28 28 29 29 29 28 29 30 29 29 28 28 28 29 29 29 29 29 28 28 27 26 25 24 23 22 22 21 20 20 19 18 18 17 17 16 16 15 15 14 14 13 13
28 27 28 28 29 29 29 30 30 29 29 29 29 29 29 29 29 29 29 28 28 27 26 25 24 23 22 21 21 20 19 19 18 18 17 17 16 16 15 15 14 14 13 13
28 27 27 27 28 28 27 28 28 29 29 29 28 29 29 29 29 28 28 28 28 27 26 25 24 23 22 21 21 20 20 19 19 18 18 17 16 16 15 15 14 14 13 13
28 27 27 27 27 25 26 27 28 28 29 29 29 29 29 29 28 28 28 27 27 27 26 26 25 24 23 22 21 20 20 19 19 18 18 17 16 16 15 15 15 14 14 13
28 27 27 27 26 26 26 26 25 25 26 28 28 28 28 28 28 27 27 27 27 26 26 25 25 24 23 22 22 21 20 19 18 18 17 17 16 16 16 15 15 15 14 14
27 27 27 26 26 25 25 24 24 24 23 25 26 26 27 27 27 26 26 26 26 26 25 25 25 24 24 23 22 21 20 19 18 18 17 17 17 16 16 15 15 15 14 14
23 24 26 26 26 25 24 25 25 23 21 24 25 25 26 26 25 25 25 25 24 24 24 24 24 24 23 23 22 21 20 19 19 18 17 17 16 16 16 15 15 15 14 13
25 24 25 25 24 22 23 23 22 21 23 23 24 24 24 24 24 23 23 23 23 23 23 23 23 22 22 22 21 21 20 19 18 18 17 17 16 16 15 15 15 14 14 13
27 27 26 25 24 21 20 20 21 22 22 22 23 23 22 22 22 21 20 20 20 20 20 20 20 20 20 20 20 19 19 18 17 17 17 16 16 16 15 15 14 14 13 12
26 26 25 24 22 21 21 21 22 22 22 21 21 21 21 20 20 19 19 18 18 18 18 18 18 18 19 18 18 18 17 17 16 16 16 16 15 15 15 14 14 13 13 12
26 25 25 23 22 21 21 21 21 21 21 20 20 20 19 19 19 18 18 17 17 17 17 17 17 17 17 17 17 16 16 15 15 15 15 15 14 14 14 14 13 13 13 13
25 24 24 23 22 22 20 20 21 20 20 19 19 18 18 18 17 17 17 16 16 16 16 16 16 16 16 16 15 15 15 14 14 14 14 14 14 14 14 13 13 13 13 13

GEFSCGP_850_meantemp_054.txt.gz
Temperature
26 23 22 23 23 24 24 23 23 22 22 21 20 19 19 18 18 17 18 18 18 18 18 18 18 18 18 18 18 18 18 18 18 18 17 17 17 16 16 16 15 15 15 15
23 23 25 26 26 26 25 23 22 22 22 21 20 19 19 18 18 18 18 18 18 18 18 18 18 18 18 18 18 18 18 18 18 18 17 17 16 16 16 15 15 15 15 15
24 25 28 28 27 25 24 23 22 22 21 20 20 19 19 19 19 19 19 19 19 19 18 18 18 18 18 19 19 19 19 18 18 18 17 17 16 16 16 15 15 15 15 14
25 27 28 27 27 25 23 24 24 23 20 18 19 18 19 19 18 18 18 19 19 19 19 19 19 19 19 19 19 19 19 19 18 18 17 17 16 16 16 15 15 15 14 14
25 27 27 27 27 26 24 24 23 21 19 18 18 18 18 19 18 18 18 19 19 19 19 19 19 19 19 19 19 19 19 19 18 18 17 17 16 16 16 15 15 15 14 14
26 27 27 27 27 26 24 22 20 17 17 18 18 18 18 18 19 19 19 20 20 20 20 20 20 20 20 20 20 19 19 19 18 18 17 17 17 16 16 15 15 15 14 14
25 25 26 26 26 25 24 21 20 19 17 18 18 19 18 19 20 20 20 20 21 21 20 20 20 20 20 20 20 20 19 19 18 18 18 17 17 16 16 15 15 14 14 14
23 24 25 26 25 24 24 21 20 20 19 18 19 18 19 21 21 22 22 22 22 21 21 21 21 21 21 21 20 20 20 19 19 18 18 17 17 16 16 16 15 15 14 14
23 24 26 27 26 26 25 23 21 19 18 18 18 19 20 22 21 21 22 22 22 22 22 22 22 22 21 21 21 21 20 20 19 19 18 18 17 17 16 16 15 15 14 14
23 23 25 26 25 25 24 23 20 19 19 19 19 19 19 21 21 21 21 22 22 22 22 22 22 22 22 22 21 21 21 20 19 19 18 18 18 17 17 16 16 15 15 14
22 22 23 24 24 24 24 23 20 18 18 18 18 19 20 20 20 20 21 23 23 23 23 23 23 23 22 22 22 21 21 20 20 19 19 19 18 18 17 17 16 16 15 14
23 20 21 23 23 24 23 23 20 20 20 18 18 19 22 21 21 21 22 23 24 24 24 24 24 23 23 22 22 21 21 21 20 20 19 19 18 18 17 17 17 16 15 14
23 20 20 21 21 22 23 23 21 19 18 18 19 20 22 21 22 23 24 24 24 25 24 24 24 23 23 23 22 22 21 21 20 20 20 19 19 18 18 17 17 16 15 15
22 20 20 21 21 22 22 23 23 20 18 19 20 21 21 21 21 22 24 25 25 25 25 24 24 24 23 23 23 22 22 21 21 20 20 19 19 18 18 17 17 16 16 15
21 21 22 22 23 23 23 24 24 22 21 20 20 21 21 21 21 23 24 25 25 25 25 25 24 24 24 23 23 22 22 21 21 21 20 20 19 19 18 17 17 16 16 16
20 22 23 23 24 23 23 23 23 22 21 21 21 20 20 21 22 23 24 24 24 25 25 25 25 24 24 24 23 23 22 22 21 21 21 20 19 19 18 18 17 17 16 16
20 20 21 21 22 23 22 22 21 19 18 19 18 18 18 19 20 21 22 23 23 24 24 24 24 24 24 24 23 23 23 22 21 21 21 20 19 19 18 18 17 17 17 16
20 19 18 19 21 22 20 20 21 19 18 18 18 18 18 18 19 20 21 22 23 23 23 24 24 24 24 24 23 23 22 22 21 21 20 20 19 19 18 18 17 17 17 16
18 18 18 17 19 20 20 20 19 18 17 17 17 18 18 19 19 18 19 20 21 22 22 23 23 23 23 23 23 22 22 21 21 20 20 20 19 19 18 18 17 17 16 16
16 16 17 17 18 19 19 19 19 18 17 17 17 17 18 18 16 16 17 19 20 21 21 21 22 22 22 22 22 21 21 21 20 20 20 20 19 18 18 18 17 17 16 16
17 16 16 16 17 18 18 18 19 18 17 17 18 18 18 17 16 16 17 18 19 19 19 19 20 20 20 20 20 20 20 19 20 19 19 19 18 18 17 17 16 16 16 15
17 16 16 16 16 17 17 17 17 17 18 18 18 18 18 17 16 16 17 17 17 18 18 18 18 18 18 18 18 18 18 18 18 18 17 17 17 16 16 16 15 15 15 15
16 16 15 15 16 16 16 17 18 18 18 18 18 18 17 16 16 16 16 16 16 16 16 16 17 17 17 16 17 16 16 16 16 16 16 16 15 15 15 15 14 14 14 14
16 15 14 14 15 15 16 17 18 18 18 18 18 17 17 16 16 16 16 16 16 16 16 16 16 16 15 15 15 15 15 15 15 14 14 14 14 14 14 13 13 13 13 13
16 15 14 14 15 15 16 17 17 17 17 17 17 17 16 16 16 16 15 15 15 15 15 14 14 14 14 14 14 14 14 14 13 13 13 13 12 12 12 12 12 12 12 12
15 15 14 14 15 14 15 16 17 17 16 16 16 16 16 16 15 15 15 14 14 14 14 14 13 13 13 13 12 12 12 12 12 12 12 12 11 11 11 11 11 11 11 11

GEFSCGP_850_meantemp_060.txt.gz
Temperature
23 21 20 21 21 22 22 22 21 21 20 20 19 18 17 17 17 17 16 17 17 17 17 17 17 17 17 17 17 18 18 18 17 17 17 17 16 16 16 15 15 15 14 14
21 21 22 23 22 22 22 21 21 20 20 20 18 18 17 17 16 17 17 17 17 17 17 17 17 17 17 17 18 18 18 18 18 17 17 17 16 16 16 15 15 15 14 14
23 23 24 24 23 23 22 21 21 21 20 18 19 18 18 17 17 17 17 17 17 18 18 17 17 17 17 17 18 18 18 18 18 17 17 17 16 16 16 15 15 15 14 14
22 23 24 24 24 23 22 22 22 20 19 17 18 18 18 17 17 17 17 17 17 18 18 18 18 18 18 18 18 18 18 18 18 17 17 17 17 16 16 15 15 14 14 14
23 24 25 24 24 23 22 20 19 19 18 17 17 17 17 17 17 17 17 17 18 18 18 18 18 18 18 18 18 18 18 18 18 18 17 17 17 16 16 15 15 15 14 14
23 24 24 24 23 22 20 19 18 16 16 18 18 17 18 17 17 18 17 18 18 18 19 19 18 18 18 18 18 18 18 18 18 18 17 17 17 16 16 16 15 15 14 14
23 24 24 23 22 21 20 19 18 19 17 18 17 17 17 18 18 18 18 18 19 19 19 19 19 19 19 19 19 19 18 18 18 18 18 17 17 16 16 16 15 15 15 15
22 22 24 24 23 21 20 20 19 20 19 18 17 18 18 19 20 20 20 20 19 19 20 20 20 20 20 19 19 19 19 19 19 18 18 17 17 16 16 16 16 15 15 15
21 22 24 24 23 22 20 19 18 17 18 18 18 18 19 20 19 19 19 19 20 20 20 20 20 20 20 20 20 20 20 19 19 19 18 18 17 17 16 16 16 16 16 15
21 22 23 23 23 22 21 18 16 17 18 19 19 19 19 20 20 19 18 19 20 21 21 21 21 21 21 21 21 20 20 20 20 19 19 18 17 17 17 16 16 16 16 16
21 21 22 22 23 23 21 19 16 15 16 18 19 19 19 19 19 19 19 21 22 22 22 22 22 22 22 21 21 21 21 20 20 19 19 18 18 17 17 17 17 17 16 16
20 19 20 21 21 21 22 20 17 19 18 16 17 18 19 18 18 19 20 21 22 23 23 23 23 22 22 22 22 21 21 21 20 20 20 19 18 18 18 18 17 17 17 17
19 19 20 21 20 21 21 20 17 15 15 15 17 19 19 17 18 19 20 21 22 23 23 23 23 23 22 22 22 22 22 21 21 21 20 19 19 19 18 18 18 18 17 17
19 18 19 21 20 21 21 21 18 17 16 16 17 18 18 17 17 17 19 20 22 22 22 23 23 23 23 23 23 22 22 22 21 21 20 20 20 19 19 19 18 18 18 17
19 20 20 20 20 21 21 21 19 18 17 17 18 18 17 16 16 16 17 19 20 21 22 22 23 23 23 23 23 23 22 22 22 21 21 20 20 20 19 19 18 18 18 18
18 20 20 21 21 21 21 20 20 19 18 18 18 18 17 15 15 15 16 17 18 19 21 21 22 22 23 23 23 23 22 22 22 21 21 20 20 20 19 19 18 18 18 18
17 18 19 19 20 21 20 20 19 18 18 18 18 17 16 15 14 14 14 15 16 17 19 20 21 21 22 22 22 22 22 22 21 21 21 20 20 19 19 19 18 18 18 18
16 16 16 17 20 20 19 18 18 18 17 16 16 16 15 14 14 14 14 15 16 17 18 19 20 20 20 21 21 21 21 20 20 20 19 19 19 19 18 18 18 18 17 17
15 15 15 16 18 19 18 18 17 17 17 16 16 15 15 15 15 14 14 15 16 17 17 18 18 19 19 19 19 19 19 19 19 18 18 18 18 18 17 17 17 17 17 16
14 14 15 15 18 18 18 18 18 18 17 17 16 15 15 16 15 13 14 15 16 16 17 17 17 18 18 18 18 18 18 17 17 17 16 16 16 16 16 16 16 16 15 15
16 15 15 16 17 17 17 17 17 17 17 17 16 16 16 14 14 14 14 15 16 16 16 16 17 17 16 16 16 16 16 15 15 15 15 15 15 15 15 15 14 14 14 14
16 15 15 14 16 17 16 17 16 16 16 16 16 16 15 14 14 14 14 15 15 15 15 15 15 15 15 15 15 15 14 14 14 14 14 14 13 13 13 13 13 13 12 12
14 15 14 14 15 15 15 15 16 16 16 16 16 15 15 14 14 14 14 14 15 15 14 14 14 14 14 14 13 13 13 13 13 13 13 12 12 12 12 12 12 12 11 11
14 13 13 14 14 14 15 15 16 16 16 16 15 15 15 14 14 14 14 14 14 14 13 13 13 13 13 12 12 12 12 11 12 12 11 11 11 11 11 11 10 10 10 10
15 13 13 14 13 13 14 15 15 16 16 15 15 15 15 15 14 14 14 13 13 13 12 12 12 12 11 11 11 11 11 11 11 10 10 10 10 10 10 10 9 9 9 9
12 13 13 14 14 13 13 14 15 15 15 15 14 14 14 14 14 13 13 13 12 12 12 11 11 11 11 10 10 10 10 10 10 10 10 9 9 9 9 9 9 9 9 8

GEFSCGP_850_meantemp_066.txt.gz
Temperature
28 29 30 30 29 29 29 29 29 28 27 27 27 26 25 23 22 21 20 19 18 18 17 17 17 17 17 17 17 17 17 17 17 17 17 16 16 16 15 15 15 15 14 14
29 29 30 29 29 29 29 29 29 28 27 26 26 26 25 23 22 22 21 20 19 18 17 17 17 17 17 17 17 17 17 17 17 17 17 16 16 15 15 15 15 15 14 14
29 30 30 29 29 29 29 29 29 28 27 26 26 26 25 24 22 21 21 20 19 19 18 17 17 17 17 17 17 17 17 17 17 17 17 16 16 16 15 15 15 15 14 14
29 30 29 29 30 29 29 29 28 28 28 28 26 27 26 25 24 23 22 20 20 19 18 18 17 17 17 17 17 17 17 17 17 17 17 16 16 16 16 15 15 15 14 14
30 30 29 29 29 29 29 28 28 28 28 28 27 27 27 26 25 24 23 21 20 19 19 18 18 18 18 18 18 17 18 18 18 17 17 17 16 16 16 16 15 15 14 14
30 30 30 30 29 28 27 27 27 27 28 27 27 27 27 27 26 26 24 22 21 20 19 19 18 18 18 18 17 17 18 18 18 17 17 17 16 16 16 16 16 15 15 14
29 30 30 29 29 28 28 28 28 28 28 27 27 27 27 27 27 26 25 23 21 20 20 19 19 18 18 18 17 17 17 18 18 18 18 17 17 17 16 16 16 16 15 15
29 29 30 29 29 29 28 28 27 26 27 28 27 27 28 27 26 25 25 24 22 21 21 20 19 19 18 18 18 18 18 18 18 18 18 18 18 17 17 16 16 16 16 15
29 29 30 29 29 29 28 29 29 28 28 27 28 28 28 27 26 26 25 24 23 22 22 21 20 19 19 19 18 18 18 18 18 18 18 18 18 18 17 17 17 16 16 15
30 28 29 29 29 28 28 29 28 28 26 26 27 27 27 27 27 27 26 25 24 23 22 22 21 20 20 19 19 19 18 19 19 19 19 18 19 18 18 17 17 17 16 16
29 28 29 28 28 28 27 27 28 28 27 26 26 27 27 27 27 27 27 26 25 24 23 23 22 21 21 20 20 19 19 19 19 19 19 19 19 19 18 18 18 17 17 17
29 28 28 28 28 28 28 28 28 27 26 26 27 27 26 26 27 26 27 26 25 24 24 23 23 22 21 21 20 20 20 19 19 19 19 19 19 19 19 18 18 18 18 17
27 27 27 27 27 27 27 28 28 28 27 27 27 27 26 26 26 25 25 25 24 24 23 23 23 22 22 21 21 21 20 20 20 19 19 20 19 19 19 19 19 18 18 18
27 27 27 27 27 28 27 27 27 27 27 27 27 27 27 26 25 24 23 23 23 23 22 22 22 21 21 21 21 20 20 20 20 19 19 19 20 19 19 19 19 19 18 18
27 27 28 28 29 28 28 28 28 27 27 27 27 27 26 24 23 22 22 21 21 21 21 21 21 20 20 20 20 20 19 19 19 19 19 19 19 19 19 19 19 19 18 18
26 27 27 27 28 28 27 28 28 27 27 27 27 26 24 22 21 21 20 20 20 20 19 19 19 19 19 19 19 19 19 19 19 19 19 18 18 18 18 18 18 18 18 18
26 26 26 27 27 27 26 28 28 27 27 27 27 26 23 22 21 20 19 19 18 18 17 17 17 17 17 18 18 18 18 18 17 17 17 17 17 17 17 17 17 17 17 17
25 25 26 27 26 24 27 27 27 27 27 26 25 24 23 20 18 17 17 17 17 16 16 16 16 16 17 17 17 17 17 17 17 16 16 16 16 16 16 16 16 16 16 16
25 25 26 26 26 26 26 26 26 26 25 25 24 22 20 18 18 17 16 15 15 15 14 14 15 15 16 16 16 16 16 16 15 15 15 15 15 15 15 15 15 15 15 15
23 24 26 25 25 25 26 25 24 25 24 24 23 22 20 20 22 18 15 14 14 14 14 14 14 14 15 15 15 16 15 15 14 14 14 14 14 14 14 14 14 14 14 13
23 23 25 25 25 26 25 24 24 24 23 23 22 21 21 21 20 16 14 14 13 13 13 13 13 14 14 14 14 14 14 13 13 13 13 13 13 13 13 13 13 13 12 12
24 24 24 24 24 24 23 23 24 22 21 21 21 20 19 17 15 15 14 13 13 13 13 13 13 12 12 13 13 13 12 12 12 12 12 12 12 12 11 11 11 11 11 11
24 24 24 25 24 22 22 22 20 20 20 20 20 19 17 16 15 14 13 13 13 13 13 13 12 12 11 11 12 12 11 11 10 11 10 10 10 10 10 10 10 10 10 10
23 21 23 23 23 22 21 20 19 19 19 19 18 17 16 15 14 14 13 13 13 12 12 12 12 12 11 11 10 10 10 10 10 10 10 10 10 10 10 10 10 10 10 10
23 22 23 23 22 21 19 19 18 18 17 17 16 16 15 14 14 13 13 13 12 12 12 12 11 11 11 10 10 10 10 10 10 10 10 10 10 10 9 9 9 9 8 8
22 22 22 22 21 21 18 17 17 16 16 16 15 14 14 14 13 13 13 12 12 12 12 11 11 11 10 10 10 10 9 9 9 10 10 10 10 10 9 9 9 9 8 8

GEFSCGP_850_meantemp_072.txt.gz
Temperature
30 30 30 31 32 32 32 31 31 31 32 31 31 29 28 27 26 25 23 21 20 20 19 18 18 18 18 18 18 18 18 18 18 18 17 17 17 17 17 17 17 16 16 16
30 30 32 33 33 32 32 31 31 31 32 32 30 29 28 26 26 25 23 22 21 19 19 18 18 18 18 18 18 18 18 18 18 17 17 17 17 17 17 17 17 16 16 16
30 32 33 32 32 32 32 31 31 31 32 32 30 28 26 26 26 25 24 23 21 20 19 18 18 18 18 18 18 18 18 18 17 17 17 17 17 17 17 17 17 16 16 16
31 33 33 32 32 32 31 32 32 31 30 29 29 26 26 26 26 26 25 23 22 21 19 19 18 18 18 18 18 18 18 18 17 17 17 17 17 17 17 17 17 16 16 15
31 32 32 32 32 32 32 33 32 30 27 25 25 26 25 25 25 26 25 24 23 21 20 19 19 18 18 18 18 18 18 17 17 17 17 17 17 17 17 17 17 17 16 16
32 33 33 33 33 33 33 32 31 27 25 22 24 25 26 27 27 27 26 25 23 22 21 20 19 19 19 18 18 18 18 17 17 17 17 17 17 17 17 17 17 17 16 16
30 31 33 33 32 33 32 30 28 26 23 23 25 26 26 28 29 28 27 25 24 22 21 20 20 19 19 18 18 18 18 17 17 17 17 17 17 17 17 17 17 17 17 17
29 30 32 32 32 31 31 30 28 26 26 26 25 25 27 29 29 28 27 25 24 23 22 21 20 20 19 19 18 18 18 18 18 18 18 18 18 18 17 17 17 17 17 17
30 30 32 33 33 32 31 31 31 29 28 27 25 24 26 28 28 28 27 26 25 24 23 22 21 20 20 19 19 18 18 18 18 18 18 18 18 18 17 17 17 17 17 17
31 30 32 32 32 32 32 31 30 29 27 27 25 23 23 25 26 28 28 27 26 24 24 23 22 21 20 20 19 19 19 18 18 18 18 18 18 18 18 18 17 17 17 17
32 30 31 32 31 30 30 30 29 29 28 27 25 23 24 24 26 28 28 27 26 25 24 24 23 22 21 21 20 19 19 19 18 18 18 18 18 18 18 18 18 18 18 17
32 31 30 31 31 30 29 29 29 28 27 28 27 25 27 27 28 29 28 27 26 26 25 25 24 23 22 21 21 20 19 19 19 19 18 19 18 18 18 18 18 18 18 18
31 30 29 29 29 27 27 28 29 29 29 28 27 25 27 26 27 28 28 27 26 26 25 25 24 23 23 22 22 21 20 20 19 19 19 19 19 19 18 18 18 18 18 18
29 29 29 28 27 25 24 26 28 28 28 28 27 25 25 24 25 26 27 26 26 25 25 24 24 23 23 22 22 22 21 21 20 20 19 19 19 19 19 18 18 18 18 18
28 28 29 30 29 27 26 27 28 28 29 28 28 26 24 24 24 25 26 25 25 24 23 23 22 22 22 22 22 21 21 21 21 20 20 20 19 19 19 18 18 18 17 17
25 25 27 29 29 28 28 28 29 29 29 29 28 26 26 25 25 25 25 24 23 22 22 21 21 21 21 21 21 21 21 20 20 20 19 19 19 18 18 18 17 17 17 17
22 22 24 26 28 28 27 29 29 29 29 29 28 26 25 24 24 24 23 22 21 20 20 19 18 18 19 19 19 19 19 19 19 19 18 18 18 18 17 17 17 17 16 16
19 19 21 24 26 25 27 29 29 29 29 28 27 26 25 23 22 21 21 20 19 19 18 17 17 17 17 17 18 18 18 18 18 18 17 17 17 16 16 16 16 16 15 15
19 17 18 22 24 25 26 25 25 26 27 28 26 24 23 21 21 20 19 18 18 17 16 16 16 16 16 16 16 16 16 16 16 16 16 16 16 15 15 15 15 15 15 14
19 18 19 22 23 23 24 22 23 24 24 26 25 24 23 22 21 19 18 17 16 16 16 15 15 15 15 15 15 15 15 15 14 14 14 14 14 14 14 14 14 14 14 13
20 20 21 22 23 23 22 22 24 23 23 25 24 23 23 23 21 18 17 16 16 15 15 15 14 14 14 14 14 14 13 13 13 13 13 13 13 13 13 13 13 13 13 13
19 21 22 23 22 21 21 21 22 22 24 25 24 22 21 19 18 17 16 16 15 15 14 14 14 13 13 13 13 13 12 12 12 12 12 12 12 12 12 12 12 12 12 12
17 18 18 20 20 19 19 20 21 23 23 23 22 20 19 18 17 16 16 15 15 15 14 14 13 13 12 12 12 12 11 11 11 11 11 11 11 11 11 11 11 11 12 12
17 17 18 18 18 19 19 20 22 23 22 22 21 19 19 17 16 16 15 15 14 14 14 14 13 13 12 12 12 11 11 11 11 11 11 11 11 11 11 11 11 11 11 11
17 17 18 18 18 18 19 20 21 21 21 21 20 19 18 17 16 15 15 14 14 14 13 13 13 12 12 12 11 11 11 11 10 11 11 11 11 12 11 11 11 11 11 11
19 19 19 18 19 19 19 20 20 20 20 19 18 17 17 16 15 14 14 14 13 13 13 13 12 12 12 12 11 11 10 10 10 10 10 11 11 11 11 11 11 11 11 10

GEFSCGP_850_meantemp_078.txt.gz
Temperature
26 23 22 23 24 25 25 26 26 26 27 25 23 22 22 21 21 20 19 19 19 19 19 18 18 18 18 18 18 18 18 18 18 18 18 18 18 18 17 17 17 17 17 16
23 23 25 26 27 27 27 26 26 26 26 24 22 22 21 21 20 20 19 19 19 18 18 18 18 18 18 18 18 18 18 18 18 18 18 18 18 17 17 17 17 17 16 16
23 25 27 27 27 27 27 26 26 26 24 23 22 21 20 20 20 20 20 19 19 19 18 18 18 17 18 18 18 18 18 18 18 18 18 17 17 17 17 17 17 17 16 16
24 26 27 27 27 28 26 27 27 26 23 20 21 19 19 19 19 19 19 19 19 18 18 18 18 18 18 18 18 18 18 17 18 18 18 18 17 17 17 17 17 17 16 16
24 26 26 26 27 28 27 26 25 23 21 19 19 19 19 19 19 19 19 19 19 19 18 18 18 18 18 18 18 18 17 17 17 18 18 18 18 17 17 17 17 17 16 16
25 26 27 27 28 28 27 24 22 19 18 19 19 19 18 18 19 19 19 19 19 19 18 18 18 18 18 18 18 17 17 17 17 17 17 17 17 17 17 17 17 17 16 16
24 26 27 27 26 26 26 23 21 21 19 19 19 19 18 20 20 20 19 19 19 19 18 18 18 18 18 18 18 18 18 17 17 17 17 17 17 17 17 17 17 17 17 17
23 23 25 27 26 25 25 23 22 21 20 19 18 19 19 21 21 21 20 20 19 19 19 19 18 18 18 18 18 18 18 18 17 18 17 17 17 17 17 17 17 17 17 17
23 23 26 28 28 27 25 23 22 20 20 18 18 19 19 21 21 20 20 19 19 19 19 19 19 19 18 18 18 18 18 18 18 18 17 17 17 17 17 17 17 17 17 17
23 23 25 27 27 27 25 23 21 20 20 20 19 19 18 20 20 20 19 19 19 20 19 19 19 19 19 19 19 18 18 18 18 18 18 18 18 18 17 17 17 17 17 17
23 22 23 24 25 25 25 24 21 19 19 19 19 19 20 19 19 19 19 20 20 20 20 20 20 20 19 19 19 19 19 18 18 18 18 18 18 18 18 17 17 17 17 17
22 21 21 22 24 25 24 23 21 21 20 19 18 19 21 19 19 20 20 21 21 21 21 21 20 20 20 19 19 19 19 19 19 18 18 18 18 18 18 17 17 17 17 17
22 20 20 21 21 22 23 22 20 19 18 18 19 20 20 19 20 20 21 21 21 21 21 21 21 20 20 20 19 19 19 19 19 19 18 18 18 18 18 18 17 17 17 17
22 19 20 20 20 20 21 22 21 19 18 19 19 20 19 19 19 19 20 21 20 20 20 20 20 20 20 20 20 20 20 19 19 19 18 18 18 18 18 18 17 17 17 17
19 18 19 20 21 21 21 22 22 21 20 20 20 20 19 19 19 19 20 20 19 19 19 19 20 20 20 20 20 20 20 19 19 18 18 18 18 18 18 17 17 17 17 17
17 18 18 19 21 21 22 22 23 22 22 21 21 20 19 19 19 19 19 18 18 18 18 18 18 19 19 19 19 19 18 18 18 18 18 18 17 17 17 17 17 17 16 16
16 17 17 17 19 20 20 20 21 21 21 21 20 19 18 18 18 18 17 17 16 16 17 17 17 17 18 18 18 18 17 17 17 17 17 16 16 16 16 16 16 16 16 15
16 15 15 16 18 19 19 19 20 20 21 21 20 19 18 17 16 17 17 16 15 15 16 16 16 16 16 16 16 16 16 16 16 16 15 15 15 15 15 15 15 15 15 14
15 15 15 15 16 17 19 18 17 18 18 19 19 18 17 16 15 14 15 16 15 15 15 15 15 15 15 15 15 15 15 15 15 14 14 14 14 14 14 14 14 13 13 13
14 14 14 14 16 17 17 17 17 18 17 18 18 17 17 16 15 13 14 14 15 15 15 14 14 14 14 14 14 14 14 14 13 13 13 13 13 13 13 13 13 13 12 12
14 14 14 14 15 16 16 16 17 17 17 17 17 17 16 15 15 14 14 14 14 14 14 14 14 14 13 13 14 13 13 12 12 12 12 12 12 12 12 12 12 12 12 11
14 14 14 14 15 15 16 16 16 16 16 16 16 16 15 14 13 13 13 14 14 13 13 14 13 13 13 13 13 13 12 11 11 12 12 11 11 11 11 11 11 11 11 11
13 13 13 14 14 14 15 15 15 16 15 16 15 15 15 14 13 13 13 13 13 13 13 13 13 12 12 12 12 12 11 11 11 11 11 11 11 11 11 11 11 11 11 11
14 14 13 13 14 14 15 15 16 16 16 16 15 15 14 13 13 13 13 13 13 13 13 13 13 12 12 12 11 11 11 11 11 11 11 11 11 11 11 11 11 10 10 10
14 14 14 14 14 14 15 15 15 15 15 15 14 14 14 13 13 13 13 13 13 13 13 12 12 12 11 11 11 11 11 11 11 11 10 10 10 10 10 10 10 10 10 9
14 14 14 14 14 13 14 15 15 15 14 14 14 13 13 13 13 13 13 13 13 12 12 12 12 12 11 11 11 11 11 10 10 10 10 10 10 10 10 9 9 9 9 8